Date,TemperatureHighF,TemperatureAvgF,TemperatureLowF,DewpointHighF,DewpointAvgF,DewpointLowF,HumidityHigh,HumidityAvg,HumidityLow,PressureMaxIn,PressureMinIn,WindSpeedMaxMPH,WindSpeedAvgMPH,GustSpeedMaxMPH,PrecipitationSumIn
2012-12-1,67.5,41.8,27.1,27.0,17.4,7.8,58,42,10,29.98,29.98,7,0,10,0.00
2012-12-2,66.2,49.8,33.6,40.5,29.8,19.3,57,49,18,29.98,29.98,11,1,21,0.32
2012-12-3,69.1,54.9,42.3,44.8,36.7,25.4,57,51,39,29.98,29.98,4,0,7,0.14
2012-12-4,72.3,55.1,41.0,45.4,34.0,24.2,60,46,22,29.98,29.98,11,1,21,0.07
2012-12-5,53.8,43.8,28.2,38.4,22.9,9.4,60,45,18,29.98,29.98,8,2,15,0.11
2012-12-6,68.9,39.9,21.9,25.9,13.8,-0.7,60,41,10,29.98,29.98,4,0,9,0.00
2012-12-7,54.3,50.4,45.0,38.5,33.4,25.9,57,52,47,29.98,29.98,5,0,7,0.33
2012-12-8,60.1,56.1,50.4,44.4,39.6,31.4,59,54,44,29.98,29.98,8,1,14,0.30
2012-12-9,59.2,53.7,47.5,43.7,37.3,30.2,60,54,47,29.98,29.98,4,0,7,0.34
2012-12-10,62.6,52.9,36.9,43.9,37.1,23.0,60,55,42,29.98,29.98,12,2,20,0.85
2012-12-11,37.6,35.2,28.9,24.1,19.2,14.1,58,52,44,29.98,29.98,8,2,15,0.02
2012-12-12,47.8,32.3,23.2,25.5,12.4,4.1,61,46,18,29.98,29.98,5,0,8,0.00
2012-12-13,55.9,31.3,18.3,21.9,7.4,-6.8,58,43,10,29.98,29.98,4,0,9,0.00
2012-12-14,58.5,33.4,19.8,23.8,9.0,-5.4,58,42,10,29.98,29.98,6,1,10,0.00
2012-12-15,64.4,43.1,26.4,28.6,14.2,-2.9,59,36,10,29.98,29.98,8,0,15,0.04
2012-12-16,61.5,54.0,45.0,38.7,33.5,22.9,55,46,34,29.98,29.98,6,1,10,0.00
2012-12-17,61.7,53.3,49.3,41.5,35.6,31.0,57,51,38,29.98,29.98,6,0,12,0.84
2012-12-18,49.1,43.8,36.9,34.3,28.0,22.4,57,53,49,29.98,29.98,11,3,17,0.01
2012-12-19,46.6,41.3,30.2,24.9,21.4,16.4,59,46,32,29.98,29.98,12,2,24,0.00
2012-12-20,53.2,44.9,33.4,33.6,22.0,5.0,57,43,14,29.98,29.98,16,2,29,0.50
2012-12-21,40.5,31.5,28.0,23.7,14.4,10.0,56,49,38,29.98,29.98,15,6,26,0.23
2012-12-22,32.0,29.2,15.6,15.4,10.0,0.7,55,44,32,29.98,29.98,13,4,23,0.00
2012-12-23,51.1,26.9,9.5,12.1,1.7,-7.1,55,40,10,29.98,29.98,13,1,16,0.01
2012-12-24,44.6,32.8,20.1,27.7,16.6,5.6,54,51,46,29.98,29.98,10,0,14,0.14
2012-12-25,43.0,37.8,30.0,25.4,20.9,15.8,56,50,38,29.98,29.98,7,1,12,0.00
2012-12-26,48.6,38.1,32.0,27.4,21.1,17.6,56,51,32,29.98,29.98,8,2,15,0.60
2012-12-27,37.0,30.7,28.8,22.4,16.7,14.5,57,56,52,29.98,29.98,12,2,22,0.04
2012-12-28,36.9,32.0,28.8,19.2,16.8,15.0,56,53,44,29.98,29.98,0,0,0,0.02
2012-12-29,37.9,34.2,29.7,22.4,19.6,16.4,59,55,50,29.98,29.98,11,3,21,0.52
2012-12-30,31.1,27.8,19.6,17.1,11.3,4.8,59,50,42,29.98,29.98,12,4,20,0.00
2012-12-31,39.2,30.4,17.1,11.3,4.9,-0.3,57,36,19,29.98,29.98,10,1,17,0.00